Date String (YYYY-MM-DD hh:mm:ss) UTC,Instrument flags,Ambient pressure (hPa),Sample flow (lpm),Bypass flow (lpm),Sample temperature (°C),Ambient temperature (°C),ASC tube jacket temperature (°C),LED temperature (°C),Box temperature (°C),Sample RH (%),Span deviation,Mass concentration (μg/m³),Mass concentration (μg/m³),Mass concentration (μg/m³)
DateTimeUTC,F1_M11,P_M11,Q1_M11,Q2_M11,T1_M11,T2_M11,T3_M11,T4_M11,T5_M11,U1_M11,ZSPAN_M11,X2_M11,X0_M11,X1_M11
2022-10-14 06:00:00,,0826.7,5.01,0.00,28.5,26.7,00.0,37.4,30.3,11.4,0000.0,0004.75,0007.97,0004.31
2022-10-14 06:01:00,,0826.8,5.00,0.00,28.5,26.6,00.0,37.4,30.2,11.4,0000.0,0004.74,0007.95,0004.31
2022-10-14 06:02:00,,0826.7,5.00,0.00,28.5,26.6,00.0,37.4,30.2,11.4,0000.0,0004.70,0007.99,0004.30
2022-10-14 06:03:00,,0826.7,5.00,0.00,28.4,26.6,00.0,37.4,30.2,11.4,0000.0,0004.67,0008.27,0004.27
2022-10-14 06:04:00,,0826.7,5.00,0.00,28.4,26.6,00.0,37.3,30.2,11.5,0000.0,0004.65,0008.21,0004.26
2022-10-14 06:05:00,,0826.7,5.01,0.00,28.4,26.7,00.0,37.3,30.2,11.5,0000.0,0004.65,0008.47,0004.26
2022-10-14 06:06:00,,0826.7,4.98,0.00,28.4,26.6,00.0,37.3,30.2,11.5,0000.0,0004.66,0009.29,0004.27
2022-10-14 06:07:00,,0826.7,5.00,0.00,28.4,26.6,00.0,37.3,30.2,11.5,0000.0,0004.69,0009.54,0004.28
2022-10-14 06:08:00,,0826.6,5.01,0.00,28.4,26.6,00.0,37.3,30.2,11.5,0000.0,0004.68,0009.50,0004.29
2022-10-14 06:09:00,,0826.6,5.00,0.00,28.4,26.6,00.0,37.3,30.2,11.5,0000.0,0004.69,0009.50,0004.30
2022-10-14 06:10:00,,0826.7,5.00,0.00,28.4,26.6,00.0,37.3,30.2,11.5,0000.0,0004.67,0009.37,0004.30
2022-10-14 06:11:00,,0826.6,5.01,0.00,28.4,26.6,00.0,37.3,30.2,11.4,0000.0,0004.62,0009.09,0004.29
2022-10-14 06:12:00,,0826.6,5.00,0.00,28.4,26.6,00.0,37.3,30.1,11.4,0000.0,0004.62,0009.10,0004.29
2022-10-14 06:13:00,,0826.5,5.00,0.00,28.4,26.6,00.0,37.3,30.1,11.4,0000.0,0004.60,0009.00,0004.28
2022-10-14 06:14:00,,0826.5,5.00,0.00,28.4,26.6,00.0,37.3,30.2,11.3,0000.0,0004.60,0008.49,0004.28
2022-10-14 06:15:00,,0826.5,4.99,0.00,28.4,26.6,00.0,37.3,30.2,11.4,0000.0,0004.61,0008.60,0004.28
2022-10-14 06:16:00,,0826.5,4.99,0.00,28.4,26.6,00.0,37.3,30.1,11.4,0000.0,0004.60,0008.51,0004.28
2022-10-14 06:17:00,,0826.5,5.01,0.00,28.3,26.6,00.0,37.3,30.1,11.4,0000.0,0004.58,0007.57,0004.27
2022-10-14 06:18:00,,0826.5,5.00,0.00,28.3,26.6,00.0,37.2,30.1,11.4,0000.0,0004.59,0007.52,0004.26
2022-10-14 06:19:00,,0826.5,5.00,0.00,28.3,26.6,00.0,37.2,30.1,11.3,0000.0,0004.63,0007.70,0004.28
2022-10-14 06:20:00,,0826.5,5.00,0.00,28.3,26.6,00.0,37.2,30.1,11.2,0000.0,0004.67,0008.53,0004.30
2022-10-14 06:21:00,,0826.5,5.01,0.00,28.3,26.6,00.0,37.2,30.1,11.3,0000.0,0004.70,0008.90,0004.31
2022-10-14 06:22:00,,0826.5,5.00,0.00,28.3,26.6,00.0,37.2,30.2,11.1,0000.0,0004.74,0009.78,0004.33
2022-10-14 06:23:00,,0826.5,5.00,0.00,28.3,26.6,00.0,37.2,30.1,11.1,0000.0,0004.72,0009.75,0004.32
2022-10-14 06:24:00,,0826.5,4.99,0.00,28.3,26.6,00.0,37.2,30.1,11.0,0000.0,0004.73,0009.78,0004.32
2022-10-14 06:25:00,,0826.5,4.99,0.00,28.3,26.5,00.0,37.2,30.0,11.0,0000.0,0004.71,0009.81,0004.31
2022-10-14 06:26:00,,0826.4,5.00,0.00,28.3,26.6,00.0,37.2,30.0,10.9,0000.0,0004.71,0009.76,0004.30
2022-10-14 06:27:00,,0826.3,5.00,0.00,28.3,26.5,00.0,37.2,30.1,10.6,0000.0,0004.70,0009.63,0004.28
2022-10-14 06:28:00,,0826.2,5.00,0.00,28.3,26.5,00.0,37.2,30.0,10.7,0000.0,0004.67,0009.56,0004.27
2022-10-14 06:29:00,,0826.2,5.00,0.00,28.3,26.5,00.0,37.2,30.0,10.7,0000.0,0004.65,0009.50,0004.25
2022-10-14 06:30:00,,0826.3,5.00,0.00,28.3,26.5,00.0,37.2,30.0,10.6,0000.0,0004.62,0009.33,0004.22
2022-10-14 06:31:00,,0826.2,5.00,0.00,28.2,26.5,00.0,37.1,30.0,10.4,0000.0,0004.55,0008.60,0004.16
2022-10-14 06:32:00,,0826.2,5.00,0.00,28.2,26.5,00.0,37.1,30.0,10.5,0000.0,0004.51,0008.22,0004.12
2022-10-14 06:33:00,,0826.2,5.00,0.00,28.2,26.5,00.0,37.1,30.0,10.4,0000.0,0004.48,0007.29,0004.08
2022-10-14 06:34:00,,0826.1,4.99,0.00,28.2,26.5,00.0,37.1,30.0,10.3,0000.0,0004.45,0007.29,0004.04
2022-10-14 06:35:00,,0826.2,5.01,0.00,28.2,26.5,00.0,37.1,30.0,10.4,0000.0,0004.42,0007.30,0004.01
2022-10-14 06:36:00,,0826.1,5.00,0.00,28.2,26.5,00.0,37.1,30.0,10.3,0000.0,0004.38,0007.09,0003.99
2022-10-14 06:37:00,,0826.2,5.00,0.00,28.2,26.5,00.0,37.1,30.1,10.2,0000.0,0004.35,0006.96,0003.96
2022-10-14 06:38:00,,0826.2,5.01,0.00,28.2,26.5,00.0,37.1,30.0,10.2,0000.0,0004.32,0006.88,0003.94
2022-10-14 06:39:00,,0826.2,5.00,0.00,28.2,26.5,00.0,37.1,30.0,10.1,0000.0,0004.33,0006.93,0003.93
2022-10-14 06:40:00,,0826.2,5.01,0.00,28.2,26.5,00.0,37.1,30.0,10.1,0000.0,0004.28,0007.01,0003.90
2022-10-14 06:41:00,,0826.2,5.00,0.00,28.2,26.5,00.0,37.1,30.0,10.3,0000.0,0004.23,0007.78,0003.88
2022-10-14 06:42:00,,0826.2,5.00,0.00,28.2,26.5,00.0,37.1,30.0,10.1,0000.0,0004.20,0008.24,0003.87
2022-10-14 06:43:00,,0826.2,4.98,0.00,28.2,26.5,00.0,37.1,30.0,10.2,0000.0,0004.17,0008.18,0003.85
2022-10-14 06:44:00,,0826.1,5.01,0.00,28.2,26.5,00.0,37.0,30.0,10.1,0000.0,0004.13,0008.04,0003.84
2022-10-14 06:45:00,,0826.1,5.02,0.00,28.2,26.5,00.0,37.0,30.0,10.1,0000.0,0004.12,0008.30,0003.83
2022-10-14 06:46:00,,0826.1,5.00,0.00,28.2,26.5,00.0,37.0,29.9,09.8,0000.0,0004.11,0008.49,0003.81
2022-10-14 06:47:00,,0826.1,5.00,0.00,28.2,26.4,00.0,37.0,29.9,09.8,0000.0,0004.09,0008.48,0003.78
2022-10-14 06:48:00,,0826.1,5.00,0.00,28.2,26.4,00.0,37.0,30.0,09.7,0000.0,0004.06,0008.47,0003.75
2022-10-14 06:49:00,,0826.1,5.00,0.00,28.2,26.4,00.0,37.0,29.9,09.7,0000.0,0004.02,0008.47,0003.72
2022-10-14 06:50:00,,0826.0,5.00,0.00,28.1,26.4,00.0,37.0,29.9,09.5,0000.0,0003.97,0008.34,0003.70
2022-10-14 06:51:00,,0826.0,5.00,0.00,28.1,26.4,00.0,37.0,30.0,09.5,0000.0,0003.94,0008.30,0003.67
2022-10-14 06:52:00,,0826.0,5.00,0.00,28.1,26.5,00.0,37.0,30.0,09.6,0000.0,0003.94,0007.64,0003.65
2022-10-14 06:53:00,,0826.0,5.00,0.00,28.1,26.4,00.0,37.0,29.9,09.6,0000.0,0003.91,0007.00,0003.63
2022-10-14 06:54:00,,0825.9,5.00,0.00,28.1,26.4,00.0,37.0,30.0,09.5,0000.0,0003.91,0006.81,0003.61
2022-10-14 06:55:00,,0825.9,5.00,0.00,28.1,26.4,00.0,37.0,30.0,09.5,0000.0,0003.88,0006.74,0003.59
2022-10-14 06:56:00,,0825.9,5.01,0.00,28.1,26.4,00.0,37.0,29.9,09.5,0000.0,0003.85,0006.43,0003.57
2022-10-14 06:57:00,,0825.9,4.98,0.00,28.1,26.4,00.0,37.0,29.9,09.5,0000.0,0003.82,0005.62,0003.55
2022-10-14 06:58:00,,0825.9,5.00,0.00,28.1,26.4,00.0,37.0,30.0,09.5,0000.0,0003.79,0005.52,0003.54
2022-10-14 06:59:00,,0825.9,5.00,0.00,28.1,26.4,00.0,37.0,29.9,09.5,0000.0,0003.78,0005.51,0003.54
